FW0475 Weather Reports


Display with metric or nautical units.
time (UTC)temp
F
wind
direction
speed
MPH
gust
MPH
rain 1hr
in
rain 24hr
in
rain mn
in
humidity
%
barometer
mb
20260906214322 74 284 2.0 4.0 0.00 0.00 0.00 67 1021.8
20260906213823 75 293 2.0 3.0 0.00 0.00 0.00 67 1021.9
20260906213332 75 293 1.0 3.0 0.00 0.00 0.00 66 1021.8
20260906212814 76 311 2.0 3.0 0.00 0.00 0.00 65 1021.9
20260906212316 76 292 1.0 3.0 0.00 0.00 0.00 63 1022.0
20260906211817 77 282 2.0 3.0 0.00 0.00 0.00 62 1022.0
20260906211326 78 284 2.0 2.0 0.00 0.00 0.00 62 1022.0
20260906210827 78 278 1.0 3.0 0.00 0.00 0.00 61 1022.0
20260906210337 78 288 1.0 3.0 0.00 0.00 0.00 63 1022.0
20260906205818 78 286 2.0 3.0 0.00 0.00 0.00 61 1022.0
20260906205319 79 279 2.0 3.0 0.00 0.00 0.00 61 1021.9
20260906204828 79 280 2.0 3.0 0.00 0.00 0.00 61 1021.8
20260906204332 79 278 2.0 2.0 0.00 0.00 0.00 62 1021.8
20260906203813 79 304 1.0 3.0 0.00 0.00 0.00 61 1021.7
20260906203322 79 274 2.0 3.0 0.00 0.00 0.00 62 1021.8
20260906202844 79 296 1.0 3.0 0.00 0.00 0.00 60 1021.9
20260906202331 80 284 2.0 3.0 0.00 0.00 0.00 59 1021.7
20260906201813 80 275 2.0 3.0 0.00 0.00 0.00 61 1021.6
20260906201316 80 288 2.0 3.0 0.00 0.00 0.00 61 1021.7
20260906200824 80 303 2.0 3.0 0.00 0.00 0.00 62 1021.6
20260906200326 79 292 1.0 3.0 0.00 0.00 0.00 60 1021.5
20260906195828 79 279 2.0 3.0 0.00 0.00 0.00 62 1021.7
20260906195336 79 304 2.0 3.0 0.00 0.00 0.00 61 1021.8
20260906194819 79 286 1.0 3.0 0.00 0.00 0.00 62 1021.9
20260906194322 79 296 2.0 3.0 0.00 0.00 0.00 64 1021.7
20260906193830 78 294 2.0 3.0 0.00 0.00 0.00 62 1021.8
20260906193313 79 279 1.0 3.0 0.00 0.00 0.00 59 1021.9
20260906192814 80 302 1.0 3.0 0.00 0.00 0.00 61 1022.0
20260906192315 80 294 2.0 3.0 0.00 0.00 0.00 62 1022.1
20260906191823 80 271 2.0 3.0 0.00 0.00 0.00 62 1022.0
20260906191326 80 286 2.0 3.0 0.00 0.00 0.00 61 1022.0
20260906190834 79 296 2.0 3.0 0.00 0.00 0.00 63 1022.1
20260906190332 79 294 2.0 3.0 0.00 0.00 0.00 63 1021.9
20260906185858 79 305 2.0 3.0 0.00 0.00 0.00 63 1022.0
20260906185340 79 308 2.0 3.0 0.00 0.00 0.00 61 1022.0
20260906184820 79 288 1.0 3.0 0.00 0.00 0.00 62 1021.9
20260906184331 79 252 2.0 3.0 0.00 0.00 0.00 63 1022.0
20260906183831 78 277 2.0 3.0 0.00 0.00 0.00 64 1022.0
20260906183340 78 263 2.0 3.0 0.00 0.00 0.00 66 1022.0
20260906182820 77 269 2.0 3.0 0.00 0.00 0.00 66 1022.0
20260906182322 77 266 2.0 3.0 0.00 0.00 0.00 67 1021.9
20260906181831 76 235 2.0 3.0 0.00 0.00 0.00 68 1022.0
20260906181314 75 242 2.0 3.0 0.00 0.00 0.00 66 1021.9
20260906180814 75 228 1.0 3.0 0.00 0.00 0.00 67 1021.9
20260906180342 75 61 1.0 2.0 0.00 0.00 0.00 66 1021.9
20260906175823 75 316 1.0 4.0 0.00 0.00 0.00 67 1021.9
20260906175332 75 261 1.0 4.0 0.00 0.00 0.00 66 1022.0
20260906174834 75 264 2.0 3.0 0.00 0.00 0.00 67 1022.0
20260906174322 74 257 0.0 3.0 0.00 0.00 0.00 67 1022.0
20260906173823 74 194 1.0 3.0 0.00 0.00 0.00 63 1022.1
20260906173325 74 296 1.0 2.0 0.00 0.00 0.00 64 1022.2
20260906172834 74 295 1.0 2.0 0.00 0.00 0.00 59 1022.2
20260906172315 74 103 0.0 2.0 0.00 0.00 0.00 63 1022.3
20260906171817 74 31 1.0 2.0 0.00 0.00 0.00 62 1022.3
20260906171327 74 300 1.0 2.0 0.00 0.00 0.00 64 1022.3
20260906170855 73 355 0.0 3.0 0.00 0.00 0.00 66 1022.2
20260906170315 73 337 1.0 3.0 0.00 0.00 0.00 64 1022.3
20260906165818 73 259 1.0 4.0 0.00 0.00 0.00 66 1022.4
20260906165320 72 61 1.0 4.0 0.00 0.00 0.00 67 1022.4
20260906164829 72 82 1.0 3.0 0.00 0.00 0.00 68 1022.4
20260906164331 72 312 1.0 3.0 0.00 0.00 0.00 66 1022.5
20260906163812 72 319 1.0 3.0 0.00 0.00 0.00 68 1022.5
20260906163321 72 312 0.0 2.0 0.00 0.00 0.00 68 1022.5
20260906162823 72 76 0.0 2.0 0.00 0.00 0.00 68 1022.6
20260906162324 71 297 1.0 2.0 0.00 0.00 0.00 70 1022.5
20260906161814 71 360 0.0 2.0 0.00 0.00 0.00 71 1022.7
20260906161400 71 284 0.0 2.0 0.00 0.00 0.00 71 1022.6
20260906160820 71 247 1.0 2.0 0.00 0.00 0.00 70 1022.6
20260906160322 71 340 1.0 2.0 0.00 0.00 0.00 71 1022.6
20260906155824 70 211 0.0 2.0 0.00 0.00 0.00 70 1022.6
20260906155313 70 28 0.0 1.0 0.00 0.00 0.00 70 1022.7
20260906154813 70 281 0.0 2.0 0.00 0.00 0.00 72 1022.7
20260906154342 70 279 0.0 2.0 0.00 0.00 0.00 73 1022.7
20260906153822 70 299 0.0 3.0 0.00 0.00 0.00 73 1022.7
20260906153324 70 263 1.0 3.0 0.00 0.00 0.00 71 1022.7
20260906152833 69 291 0.0 2.0 0.00 0.00 0.00 72 1022.8
20260906152341 69 265 0.0 2.0 0.00 0.00 0.00 73 1022.7
20260906151822 69 247 0.0 2.0 0.00 0.00 0.00 74 1022.9
20260906151324 69 360 0.0 1.0 0.00 0.00 0.00 74 1022.9
20260906150833 69 360 0.0 2.0 0.00 0.00 0.00 75 1023.0
20260906150315 68 340 1.0 3.0 0.00 0.00 0.00 75 1022.9
20260906145817 68 330 1.0 3.0 0.00 0.00 0.00 75 1022.8
20260906145326 68 303 1.0 3.0 0.00 0.00 0.00 76 1022.6
20260906144828 67 323 0.0 3.0 0.00 0.00 0.00 76 1022.6
20260906144330 67 119 1.0 3.0 0.00 0.00 0.00 76 1022.6
20260906143811 67 38 0.0 1.0 0.00 0.00 0.00 77 1022.5
20260906143320 67 34 1.0 2.0 0.00 0.00 0.00 77 1022.6
20260906142822 66 302 0.0 2.0 0.00 0.00 0.00 77 1022.5
20260906142352 66 319 0.0 2.0 0.00 0.00 0.00 77 1022.5
20260906141813 66 19 0.0 2.0 0.00 0.00 0.00 77 1022.5
20260906141315 66 40 0.0 2.0 0.00 0.00 0.00 78 1022.5
20260906140843 65 14 0.0 2.0 0.00 0.00 0.00 78 1022.4
20260906140351 65 60 0.0 3.0 0.00 0.00 0.00 78 1022.4
20260906135812 65 61 1.0 3.0 0.00 0.00 0.00 78 1022.2
20260906135314 65 67 1.0 3.0 0.00 0.00 0.00 78 1022.2
20260906134822 65 67 1.0 2.0 0.00 0.00 0.00 79 1022.1
20260906134325 64 61 1.0 2.0 0.00 0.00 0.00 79 1022.0
20260906133832 64 73 1.0 2.0 0.00 0.00 0.00 78 1021.9
20260906133313 64 64 1.0 2.0 0.00 0.00 0.00 79 1021.9
20260906132815 64 69 1.0 2.0 0.00 0.00 0.00 79 1021.9
20260906132324 64 67 1.0 2.0 0.00 0.00 0.00 79 1021.8
20260906131826 63 67 1.0 2.0 0.00 0.00 0.00 79 1021.8
20260906131328 63 74 1.0 2.0 0.00 0.00 0.00 80 1021.7
20260906130836 63 71 1.0 2.0 0.00 0.00 0.00 79 1021.8
20260906130319 63 69 1.0 2.0 0.00 0.00 0.00 80 1021.9
20260906125820 63 70 1.0 2.0 0.00 0.00 0.00 80 1021.9
20260906125329 62 69 1.0 3.0 0.00 0.00 0.00 80 1021.9
20260906124830 62 70 1.0 3.0 0.00 0.00 0.00 80 1021.9
20260906124313 62 69 1.0 2.0 0.00 0.00 0.00 80 1021.7
20260906123814 62 71 1.0 3.0 0.00 0.00 0.00 80 1021.7
20260906123323 62 70 1.0 3.0 0.00 0.00 0.00 80 1021.6
20260906122824 62 72 1.0 3.0 0.00 0.00 0.00 80 1021.5
20260906122333 61 69 1.0 3.0 0.00 0.00 0.00 80 1021.5
20260906121819 61 70 1.0 2.0 0.00 0.00 0.00 80 1021.5
20260906121321 61 69 0.0 3.0 0.00 0.00 0.00 80 1021.5
20260906120822 61 68 1.0 3.0 0.00 0.00 0.00 80 1021.4
20260906120331 61 71 1.0 2.0 0.00 0.00 0.00 80 1021.3
20260906115813 61 73 1.0 2.0 0.00 0.00 0.00 80 1021.3
20260906115315 61 71 1.0 2.0 0.00 0.00 0.00 80 1021.3
20260906114824 61 76 1.0 3.0 0.00 0.00 0.00 80 1021.3
20260906114346 61 77 1.0 3.0 0.00 0.00 0.00 81 1021.1
20260906113833 61 82 1.0 3.0 0.00 0.00 0.00 81 1021.1
20260906113315 61 74 1.0 3.0 0.00 0.00 0.00 80 1021.0
20260906112817 61 76 1.0 3.0 0.00 0.00 0.00 81 1021.0
20260906112325 61 74 2.0 3.0 0.00 0.00 0.00 80 1020.9
20260906111848 61 70 1.0 3.0 0.00 0.00 0.00 80 1020.9
20260906111337 61 72 1.0 2.0 0.00 0.00 0.00 80 1020.8
20260906110816 61 74 0.0 2.0 0.00 0.00 0.00 80 1020.7
20260906110325 61 69 1.0 3.0 0.00 0.00 0.00 80 1020.8
20260906105827 61 70 1.0 3.0 0.00 0.00 0.00 80 1020.8
20260906105328 61 69 1.0 3.0 0.00 0.00 0.00 80 1020.8
20260906104838 62 69 1.0 3.0 0.00 0.00 0.00 80 1020.8
20260906104319 62 67 1.0 3.0 0.00 0.00 0.00 80 1020.8
20260906103819 62 65 1.0 3.0 0.00 0.00 0.00 80 1020.8
20260906103326 62 66 1.0 3.0 0.00 0.00 0.00 80 1020.7
20260906102828 62 73 1.0 3.0 0.00 0.00 0.00 80 1020.7
20260906102337 62 69 1.0 2.0 0.00 0.00 0.00 80 1020.8
20260906101818 62 67 1.0 2.0 0.00 0.00 0.00 80 1020.8
20260906101321 62 72 1.0 3.0 0.00 0.00 0.00 80 1020.7
20260906100829 62 63 1.0 3.0 0.00 0.00 0.00 81 1020.7
20260906100333 62 71 1.0 3.0 0.00 0.00 0.00 81 1020.8
20260906095821 62 68 1.0 3.0 0.00 0.00 0.00 81 1020.7
20260906095322 62 68 1.0 3.0 0.00 0.00 0.00 81 1020.8
20260906094824 62 74 1.0 3.0 0.00 0.00 0.00 81 1020.6
20260906094334 62 72 2.0 3.0 0.00 0.00 0.00 82 1020.6
20260906093816 62 72 2.0 3.0 0.00 0.00 0.00 81 1020.6
20260906093317 62 74 1.0 3.0 0.00 0.00 0.00 81 1020.6
20260906092846 62 72 1.0 2.0 0.00 0.00 0.00 81 1020.6
20260906092327 62 69 1.0 2.0 0.00 0.00 0.00 82 1020.6
20260906091836 62 75 1.0 3.0 0.00 0.00 0.00 82 1020.6
20260906091318 62 75 1.0 3.0 0.00 0.00 0.00 81 1020.6
20260906090819 62 74 1.0 3.0 0.00 0.00 0.00 81 1020.5
20260906090328 62 72 1.0 3.0 0.00 0.00 0.00 81 1020.5
20260906085830 62 69 1.0 2.0 0.00 0.00 0.00 81 1020.5
20260906085359 62 71 1.0 3.0 0.00 0.00 0.00 81 1020.5
20260906084819 63 71 1.0 3.0 0.00 0.00 0.00 81 1020.5
20260906084322 63 65 1.0 3.0 0.00 0.00 0.00 81 1020.4
20260906083851 63 73 1.0 3.0 0.00 0.00 0.00 80 1020.4
20260906083311 63 63 1.0 3.0 0.00 0.00 0.00 80 1020.4
20260906082813 63 69 1.0 3.0 0.00 0.00 0.00 80 1020.4
20260906082322 63 63 1.0 2.0 0.00 0.00 0.00 80 1020.3
20260906081826 63 58 0.0 2.0 0.00 0.00 0.00 80 1020.3
20260906081336 63 341 0.0 1.0 0.00 0.00 0.00 80 1020.2
20260906080836 63 325 0.0 1.0 0.00 0.00 0.00 79 1020.1
20260906080344 63 325 0.0 1.0 0.00 0.00 0.00 79 1020.0
20260906075825 64 325 0.0 1.0 0.00 0.00 0.00 79 1020.0
20260906075327 64 325 0.0 1.0 0.00 0.00 0.00 79 1019.9
20260906074836 64 326 0.0 1.0 0.00 0.00 0.00 79 1020.0
20260906074339 64 360 0.0 1.0 0.00 0.00 0.00 79 1020.0
20260906073826 64 326 0.0 1.0 0.00 0.00 0.00 79 1020.0
20260906073343 64 325 0.0 2.0 0.00 0.00 0.00 78 1019.9
20260906072831 64 360 0.0 2.0 0.00 0.00 0.00 78 1020.0
20260906072317 64 30 0.0 1.0 0.00 0.00 0.00 78 1019.8
20260906071844 64 32 0.0 2.0 0.00 0.00 0.00 78 1019.9
20260906071324 65 9 0.0 2.0 0.00 0.00 0.00 78 1020.0
20260906070825 65 58 0.0 2.0 0.00 0.00 0.00 78 1020.0
20260906070311 65 58 0.0 2.0 0.00 0.00 0.00 78 1020.1
20260906065820 65 58 0.0 3.0 0.00 0.00 0.00 78 1019.8
20260906065323 65 66 1.0 3.0 0.00 0.00 0.00 78 1019.7
20260906064831 65 26 1.0 3.0 0.00 0.00 0.00 78 1019.8
20260906064314 65 36 0.0 2.0 0.00 0.00 0.00 78 1019.8
20260906063815 65 71 1.0 2.0 0.00 0.00 0.00 78 1019.7
20260906063344 65 65 1.0 3.0 0.00 0.00 0.00 78 1019.7
20260906062843 65 65 1.0 3.0 0.00 0.00 0.00 78 1019.8
20260906062314 65 63 1.0 3.0 0.00 0.00 0.00 78 1019.7
20260906061817 65 71 1.0 2.0 0.00 0.00 0.00 78 1019.9
20260906061320 65 71 0.0 2.0 0.00 0.00 0.00 78 1019.9
20260906060828 65 71 1.0 2.0 0.00 0.00 0.00 79 1020.0
20260906060329 65 63 0.0 3.0 0.00 0.00 0.00 79 1020.0
20260906055830 66 69 1.0 3.0 0.00 0.00 0.00 79 1019.9
20260906055320 66 64 1.0 3.0 0.00 0.00 0.00 79 1020.0
20260906054820 66 65 1.0 3.0 0.00 0.00 0.00 79 1019.9
20260906054322 66 69 1.0 2.0 0.00 0.00 0.00 79 1019.8
20260906053851 66 71 1.0 2.0 0.00 0.00 0.00 79 1019.8
20260906053311 66 70 1.0 3.0 0.00 0.00 0.00 79 1019.8
20260906052821 67 69 1.0 3.0 0.00 0.00 0.00 79 1019.8
20260906052322 67 69 1.0 3.0 0.00 0.00 0.00 78 1019.8
20260906051823 67 68 1.0 3.0 0.00 0.00 0.00 78 1019.8
20260906051333 67 68 1.0 2.0 0.00 0.00 0.00 78 1019.7
20260906050835 67 72 1.0 3.0 0.00 0.00 0.00 78 1019.7
20260906050316 67 72 0.0 3.0 0.00 0.00 0.00 78 1019.7
20260906045824 68 62 1.0 2.0 0.00 0.00 0.00 78 1019.7
20260906045326 68 67 1.0 2.0 0.00 0.00 0.00 79 1019.5
20260906044835 68 66 1.0 2.0 0.00 0.00 0.00 79 1019.6
20260906044317 68 65 0.0 3.0 0.00 0.00 0.00 79 1019.5
20260906043818 68 313 1.0 3.0 0.00 0.00 0.00 79 1019.5
20260906043328 68 45 0.0 2.0 0.00 0.00 0.00 79 1019.5
20260906042829 68 19 0.0 1.0 0.00 0.00 0.00 80 1019.5
20260906042331 68 355 0.0 1.0 0.00 0.00 0.00 80 1019.5
20260906041812 68 360 0.0 1.0 0.00 0.00 0.00 81 1019.4
20260906041342 68 360 0.0 1.0 0.00 0.00 0.00 81 1019.4
20260906040849 68 360 0.0 1.0 0.00 0.00 0.00 81 1019.3
20260906040330 68 360 0.0 1.0 0.00 0.00 0.00 81 1019.3
20260906035839 69 61 0.0 1.0 0.00 0.00 0.00 81 1019.1
20260906035320 69 60 0.0 0.0 0.00 0.00 0.00 81 1019.1
20260906034822 69 61 0.0 0.0 0.00 0.00 0.00 81 1019.1
20260906034332 69 61 0.0 0.0 0.00 0.00 0.00 81 1019.1
20260906033830 69 61 0.0 0.0 0.00 0.00 0.00 81 1019.0
20260906033340 69 61 0.0 1.0 0.00 0.00 0.00 81 1018.9
20260906032822 69 61 0.0 2.0 0.00 0.00 0.00 81 1018.9
20260906032323 69 61 1.0 2.0 0.00 0.00 0.00 81 1018.8
20260906031832 69 60 0.0 1.0 0.00 0.00 0.00 81 1018.7
20260906031314 69 60 0.0 2.0 0.00 0.00 0.00 81 1018.7
20260906030816 69 61 1.0 2.0 0.00 0.00 0.00 81 1018.6
20260906030325 69 60 0.0 1.0 0.00 0.00 0.00 81 1018.6
20260906025826 69 61 0.0 2.0 0.00 0.00 0.00 80 1018.6
20260906025336 70 60 1.0 2.0 0.00 0.00 0.00 80 1018.7
20260906024817 70 61 0.0 2.0 0.00 0.00 0.00 80 1018.6
20260906024319 70 61 1.0 2.0 0.00 0.00 0.00 80 1018.5
20260906023828 70 60 1.0 2.0 0.00 0.00 0.00 80 1018.5
20260906023337 70 61 1.0 2.0 0.00 0.00 0.00 79 1018.5
20260906022818 70 59 1.0 2.0 0.00 0.00 0.00 79 1018.6
20260906022320 70 59 0.0 1.0 0.00 0.00 0.00 79 1018.5
20260906021847 70 60 0.0 2.0 0.00 0.00 0.00 79 1018.5
20260906021312 70 60 1.0 2.0 0.00 0.00 0.00 78 1018.4
20260906020820 70 59 1.0 2.0 0.00 0.00 0.00 78 1018.4
20260906020323 71 56 1.0 2.0 0.00 0.00 0.00 78 1018.5
20260906015848 71 53 1.0 2.0 0.00 0.00 0.00 78 1018.4
20260906015313 71 53 1.0 2.0 0.00 0.00 0.00 78 1018.4
20260906014815 71 52 1.0 2.0 0.00 0.00 0.00 77 1018.4
20260906014340 71 34 0.0 1.0 0.00 0.00 0.00 77 1018.4
20260906013821 71 30 0.0 2.0 0.00 0.00 0.00 77 1018.1
20260906013330 71 49 0.0 2.0 0.00 0.00 0.00 77 1018.1
20260906012811 71 343 0.0 1.0 0.00 0.00 0.00 77 1018.1
20260906012313 71 343 0.0 2.0 0.00 0.00 0.00 77 1018.1
20260906011822 71 59 0.0 2.0 0.00 0.00 0.00 77 1017.9
20260906011325 71 59 0.0 1.0 0.00 0.00 0.00 77 1017.9
20260906010833 71 59 0.0 2.0 0.00 0.00 0.00 77 1018.0
20260906010319 71 54 0.0 2.0 0.00 0.00 0.00 77 1017.9
20260906005821 71 52 0.0 2.0 0.00 0.00 0.00 77 1017.9
20260906005323 71 47 0.0 1.0 0.00 0.00 0.00 77 1017.8
20260906004833 72 47 1.0 2.0 0.00 0.00 0.00 77 1017.7
20260906004317 72 360 0.0 2.0 0.00 0.00 0.00 76 1017.7
20260906003818 72 345 0.0 1.0 0.00 0.00 0.00 76 1017.6
20260906003327 72 355 0.0 1.0 0.00 0.00 0.00 76 1017.6
20260906002850 72 30 0.0 1.0 0.00 0.00 0.00 77 1017.4
20260906002337 72 49 0.0 2.0 0.00 0.00 0.00 76 1017.5
20260906001818 73 49 1.0 2.0 0.00 0.00 0.00 76 1017.5
20260906001320 73 24 0.0 2.0 0.00 0.00 0.00 76 1017.6
20260906000829 73 5 0.0 2.0 0.00 0.00 0.00 75 1017.7
20260906000330 74 35 0.0 1.0 0.00 0.00 0.00 75 1017.7
20260905235812 74 34 0.0 3.0 0.00 0.00 0.00 76 1017.6
20260905235314 74 34 1.0 3.0 0.00 0.00 0.00 75 1017.6
20260905234823 74 360 0.0 2.0 0.00 0.00 0.00 75 1017.7
20260905234325 74 17 1.0 2.0 0.00 0.00 0.00 75 1017.7
20260905233833 74 313 0.0 4.0 0.00 0.00 0.00 74 1017.7
20260905233316 74 355 0.0 4.0 0.00 0.00 0.00 75 1017.7
20260905232818 74 23 1.0 5.0 0.00 0.00 0.00 74 1017.8
20260905232320 74 320 1.0 5.0 0.00 0.00 0.00 74 1017.7
20260905231829 74 346 1.0 3.0 0.00 0.00 0.00 74 1017.7
20260905231349 75 319 1.0 3.0 0.00 0.00 0.00 76 1017.8
20260905230836 75 24 1.0 3.0 0.00 0.00 0.00 76 1017.7
20260905230316 75 294 0.0 3.0 0.00 0.00 0.00 76 1017.7
20260905225825 75 349 1.0 4.0 0.00 0.00 0.00 76 1017.6
20260905225327 75 321 1.0 4.0 0.00 0.00 0.00 76 1017.6
20260905224829 76 46 2.0 5.0 0.00 0.00 0.00 75 1017.7
20260905224338 76 327 2.0 5.0 0.00 0.00 0.00 75 1017.7
20260905223840 76 264 2.0 4.0 0.00 0.00 0.00 76 1017.7
20260905223329 76 267 2.0 4.0 0.00 0.00 0.00 77 1017.6
20260905222830 76 279 2.0 4.0 0.00 0.00 0.00 77 1017.6
20260905222312 76 282 1.0 3.0 0.00 0.00 0.00 77 1017.6
20260905221814 76 319 1.0 3.0 0.00 0.00 0.00 77 1017.4
20260905221323 76 360 1.0 3.0 0.00 0.00 0.00 77 1017.4
20260905220824 76 285 1.0 4.0 0.00 0.00 0.00 77 1017.4
20260905220333 76 303 2.0 4.0 0.00 0.00 0.00 77 1017.4
20260905215815 76 301 2.0 4.0 0.00 0.00 0.00 76 1017.4
20260905215317 76 292 2.0 4.0 0.00 0.00 0.00 76 1017.4
20260905214845 76 315 2.0 4.0 0.00 0.00 0.00 76 1017.3